Dewpoint
67 67 67 66 67 66 65 64 65 65 64 64 66 65 64 64 63 63 62 62 62 64 65 65 66 67 66 66 66 66 66 65 63 63 63 61 60 59 59 59 60 59 60
67 67 67 65 66 65 64 64 66 64 64 64 64 63 63 63 62 61 61 61 61 61 61 63 63 65 64 64 65 65 65 65 64 62 61 59 58 58 58 58 58 58 58
67 67 66 65 65 64 64 64 64 64 64 64 63 62 62 62 61 61 60 60 59 59 59 60 62 63 63 64 63 62 62 62 62 63 60 60 58 58 57 57 56 56 57
67 67 65 65 65 65 64 64 64 64 63 62 61 60 59 61 62 60 59 58 57 57 58 58 60 61 62 62 62 62 61 60 62 61 60 59 59 58 57 54 53 55 53
67 67 66 66 65 65 64 63 64 63 62 60 59 58 56 57 59 61 59 57 56 55 56 56 57 58 59 60 59 60 60 58 58 58 58 58 58 56 56 55 53 53 53
67 67 67 66 65 64 63 62 63 62 61 59 58 56 54 54 56 60 60 59 57 56 55 55 56 54 53 56 58 60 59 55 54 56 56 56 57 55 55 53 52 52 51
67 68 67 66 65 64 63 63 62 61 60 58 57 53 51 52 55 57 57 55 55 55 53 52 51 51 48 45 49 51 54 58 58 57 56 56 57 57 55 54 54 53 51
67 68 67 67 65 65 63 62 62 62 58 57 55 52 51 50 53 55 55 52 51 52 53 51 51 50 50 42 40 39 40 48 51 50 49 48 54 57 56 56 51 50 53
66 66 68 67 65 65 64 63 62 61 60 58 56 52 50 49 49 52 53 50 47 47 48 49 47 49 53 50 44 43 42 41 47 51 51 52 53 54 55 53 51 52 50
62 63 64 67 65 64 63 62 62 61 60 57 55 53 51 47 48 50 53 51 47 47 46 44 49 46 49 50 47 47 48 46 46 46 45 46 47 49 51 49 50 49 52
60 62 61 62 65 64 64 63 63 60 58 55 52 50 48 47 46 47 52 51 49 48 46 43 39 45 43 43 45 42 41 39 40 45 46 42 41 44 46 46 46 48 46
59 59 58 58 60 64 64 63 61 59 56 52 51 50 50 48 46 46 47 51 50 46 44 42 38 41 40 39 37 42 44 42 40 41 40 40 40 40 44 46 45 46 46
57 57 57 55 56 58 60 60 58 57 55 53 51 51 50 49 45 44 45 46 47 44 41 41 40 39 40 38 42 42 41 37 37 36 35 35 33 37 43 46 46 44 44
54 53 53 53 53 54 54 55 55 54 53 52 51 51 51 52 50 48 40 39 42 39 40 40 44 42 42 42 40 38 38 38 36 36 35 37 38 35 33 38 43 45 43
51 51 51 50 50 49 48 50 51 49 52 52 52 52 51 50 46 39 40 39 42 41 43 39 38 37 36 38 40 39 37 36 35 35 32 34 32 31 32 37 34 37 43
50 50 50 49 49 49 49 47 44 45 43 43 46 47 43 43 40 38 38 38 37 38 37 37 39 43 41 42 41 38 37 36 36 35 33 31 34 29 27 29 33 33 34
51 49 49 49 48 47 46 46 45 42 41 39 40 42 42 40 38 37 36 36 37 35 34 38 39 38 37 37 38 36 34 34 33 37 33 33 34 34 34 34 34 33 29
50 50 50 49 49 48 46 45 44 43 42 40 39 37 37 37 37 36 36 37 38 38 32 33 38 38 37 37 38 38 38 35 39 35 35 37 35 35 33 33 33 29 27
52 52 52 51 50 49 48 46 44 43 41 40 38 36 36 35 36 35 36 33 34 37 38 39 41 39 37 38 37 37 36 36 34 34 34 34 34 36 33 32 34 36 32
54 53 53 52 51 51 49 47 46 43 42 39 37 35 35 34 31 31 32 32 33 35 38 37 39 39 39 40 38 37 37 37 36 36 36 35 35 36 36 33 33 33 31
45 46 45 39 43 47 50 46 46 44 42 40 38 37 37 33 31 33 35 35 35 36 37 37 38 39 40 40 39 39 37 36 37 37 38 38 38 37 37 36 35 34 33
37 36 37 39 41 40 40 40 42 43 43 42 41 40 38 35 34 35 37 37 37 38 38 37 34 34 34 39 41 41 39 38 38 37 37 37 37 37 36 35 35 34 34
39 39 41 42 40 43 45 44 44 44 43 42 42 39 38 37 36 36 35 33 37 38 39 38 36 35 36 38 39 39 38 38 38 38 37 37 37 37 36 35 33 33 33
45 46 44 44 44 45 42 41 42 43 43 42 38 36 36 37 34 35 38 42 47 48 46 47 44 40 39 38 38 37 36 35 38 37 36 37 36 35 34 32 32 31 32
45 44 44 44 43 42 42 45 44 43 42 44 39 42 44 43 43 44 47 47 44 39 37 37 37 36 35 34 33 33 32 31 33 33 37 36 36 35 33 32 32 32 32
44 42 41 41 43 42 41 42 42 42 43 43 43 44 43 42 42 42 43 42 40 38 35 31 31 33 31 29 29 30 30 30 32 31 34 38 39 39 38 37 36 34 33
Lifted_Index
-6 -5 -5 -4 -3 -2 -0 1 1 1 2 2 2 2 3 2 2 2 2 2 1 1 1 1 0 0 0 0 -0 -0 -0 -0 -0 0 0 0 1 1 2 3 3 3 3
-5 -5 -5 -3 -2 -1 -0 0 1 1 2 2 3 3 3 3 3 3 3 3 3 2 2 1 1 1 1 0 0 0 0 0 0 0 1 1 1 2 3 3 3 4 4
-5 -5 -4 -3 -2 -1 -0 0 1 1 2 3 3 3 3 3 3 3 3 4 4 3 3 3 2 2 2 1 1 1 1 1 1 1 1 2 2 3 3 4 4 4 4
-5 -5 -4 -3 -2 -1 -0 0 1 1 2 3 4 4 4 4 4 4 4 5 5 5 4 4 4 3 3 3 2 2 2 2 2 2 2 2 3 3 3 4 4 4 5
-4 -4 -4 -3 -2 -1 -1 0 1 1 3 4 4 4 5 5 5 5 5 6 6 6 6 6 5 5 4 4 4 3 3 3 3 3 3 3 3 4 4 4 5 5 5
-4 -4 -4 -3 -2 -2 -1 0 1 2 3 4 4 5 5 5 6 6 6 6 7 7 7 7 7 7 6 5 5 4 4 5 4 4 4 4 4 5 5 5 5 6 6
-5 -4 -4 -3 -3 -2 -1 -0 1 2 3 4 4 5 5 6 6 6 7 7 7 7 8 8 8 8 7 7 6 6 6 6 6 6 6 5 5 6 6 6 6 6 6
-5 -4 -4 -3 -3 -2 -2 -1 -0 1 2 4 4 5 5 6 6 7 7 7 7 7 7 8 8 8 8 8 8 7 7 7 7 7 7 7 6 6 6 6 6 6 7
-5 -4 -4 -4 -3 -3 -2 -2 -1 0 2 3 4 5 5 6 6 7 7 7 7 7 7 7 8 8 8 8 8 8 8 8 9 9 9 9 9 8 7 7 7 6 6
-4 -4 -4 -4 -4 -4 -3 -3 -2 -0 1 2 3 4 5 6 6 6 6 7 7 7 7 7 8 8 8 8 8 8 8 9 10 11 11 11 12 11 10 8 7 6 6
-3 -3 -4 -4 -4 -4 -4 -3 -2 -1 1 1 2 3 4 5 5 6 6 6 7 7 7 7 8 8 9 8 9 9 10 10 10 11 11 12 13 13 12 11 9 7 6
-3 -3 -3 -3 -3 -4 -3 -2 -1 -0 1 1 1 2 3 4 5 5 6 6 6 7 7 8 9 10 10 10 10 11 11 11 11 11 11 12 13 13 12 11 10 9 8
-2 -2 -2 -2 -2 -2 -2 -1 0 1 1 1 2 2 3 4 4 5 6 6 7 7 8 9 11 12 12 12 12 12 13 12 12 12 12 12 13 12 12 11 10 9 9
-1 -1 -0 0 0 -0 -0 0 1 1 2 2 2 2 2 3 4 5 6 6 7 8 9 11 12 13 13 13 13 13 13 12 12 12 12 12 12 12 12 11 10 9 9
1 1 2 2 2 1 1 2 2 2 2 2 2 3 3 3 4 5 6 7 8 10 11 12 12 12 12 12 12 12 12 12 12 12 12 12 12 12 12 11 11 10 9
2 3 3 3 3 3 3 3 3 3 3 3 4 4 4 5 5 6 7 7 9 11 11 11 11 11 11 11 11 11 11 11 11 12 12 12 12 12 11 11 11 10 9
3 3 4 4 4 5 5 5 5 5 6 6 6 6 7 7 7 8 8 9 10 11 11 11 11 11 11 10 10 11 11 11 11 11 12 12 12 12 11 11 10 10 9
4 5 5 6 7 8 8 8 9 9 9 9 9 10 10 11 11 11 11 12 11 11 10 10 10 10 10 10 10 10 11 11 11 11 11 12 12 11 11 10 10 9 9
5 5 6 7 8 9 10 10 10 11 11 10 10 11 12 13 13 13 13 12 11 10 10 9 9 9 9 10 10 10 10 10 11 11 11 11 11 11 10 10 9 9 9
5 5 6 6 6 7 8 9 9 9 9 9 9 10 10 11 12 12 11 10 9 9 9 9 9 9 9 9 9 9 10 10 10 10 10 10 10 10 10 9 9 9 9
5 5 5 5 5 6 6 7 7 7 7 7 7 8 8 8 9 9 9 9 8 9 9 9 9 9 8 8 8 9 9 9 9 9 10 9 9 9 9 9 8 8 8
6 6 6 6 6 6 6 6 6 6 6 6 6 7 7 7 7 7 7 8 8 8 8 8 8 8 8 8 8 8 8 8 8 9 9 8 8 8 8 8 8 8 8
6 6 6 6 6 5 5 5 5 5 5 5 5 5 6 5 5 6 6 7 7 7 7 7 7 7 7 7 7 7 7 7 7 7 7 7 7 7 7 7 7 7 8
5 5 5 5 4 4 4 4 4 4 4 4 4 4 5 5 4 4 5 6 6 6 6 6 6 6 5 5 5 5 5 5 5 5 5 5 6 6 6 6 6 6 7
4 4 4 4 4 4 4 4 4 4 4 4 4 4 4 4 4 4 5 5 5 5 5 4 4 4 4 4 4 4 4 4 4 4 4 4 4 4 4 4 5 5 5
3 3 3 3 3 4 4 4 4 4 4 4 4 3 4 4 4 5 5 5 4 4 4 4 4 4 4 4 4 4 4 3 3 3 3 3 3 3 3 3 4 4 5